カタログに戻る

COSMOS 1622

運用中軍事PO
NORAD 15474·PAYLOAD·🇷🇺 Russia

打ち上げ Jan 15, 1985 から Plesetsk Cosmodrome

Loading…

次のパス (今後24時間)

TLE

最新Source: Space-Track

元期: Sep 14, 2026, 19:30 UTC

1 15474U 85003F   26257.81273993  .00000009  00000-0 -90619-5 0  9991
2 15474  82.6112  27.6833 0008448 337.5756 177.5523 12.63800536921851

AllMySatでCOSMOS 1622をリアルタイム追跡

Download on the App Store